[Iaude] MPEC M27: 2015 LG14 [a=1.48,e=0.25,i=11.1,H=23.18]
    mpec at cfa.harvard.edu 
    mpec at cfa.harvard.edu
       
    Wed Jun 19 10:13:16 EDT 2024
    
    
  
M.P.E.C. 2024-M27                                 Issued 2024 June 19, 14:11 UT
     The Minor Planet Electronic Circulars contain information on unusual
         minor planets, routine data on comets and natural satellites,
         and occasional editorial announcements.  They are published
    on behalf of Division F of the International Astronomical Union by the
          Minor Planet Center, Smithsonian Astrophysical Observatory,
                          Cambridge, MA 02138, U.S.A.
			  
             Prepared using the Tamkin Foundation Computer Network
                              MPC at CFA.HARVARD.EDU
            URL https://www.minorplanetcenter.net/    ISSN 1523-6714
                                   2015 LG14                                    
                           Revision to MPEC 2015-L38                            
Additional Observations:
     K15L14G  C2024 06 15.53629421 04 26.041-00 14 05.20         21.61wXEM027F52
     K15L14G  C2024 06 15.54893221 04 25.771-00 13 20.48         21.38wXEM027F52
     K15L14G  C2024 06 15.56158321 04 25.485-00 12 35.60         21.72wXEM027F52
     K15L14G  C2024 06 15.57425821 04 25.203-00 11 50.74         21.65wXEM027F52
     K15L14G KC2024 06 18.33308121 03 58.028+02 26 31.38         20.78GVEM027I52
     K15L14G KC2024 06 18.33692021 03 57.902+02 26 43.84         21.55GVEM027I52
     K15L14G KC2024 06 18.34464021 03 57.686+02 27 09.47               VEM027I52
Observer details:
F52 Pan-STARRS 2, Haleakala.  Observers J. Herman, T. Lowe, P. Minguez, A.
    Schultz, I. Smith.  Measurers K. Chambers, T. de Boer, J. Fairlamb, H.
    Gao, M. Huber, C.-C. Lin, E. Magnier, Y. Ramanjooloo, R. Wainscoat, R.
    Weryk.  1.8-m Ritchey-Chretien + CCD.
I52 Steward Observatory, Mt. Lemmon Station.  Observer G. J. Leonard.
    Measurers T. Beuden, V. F. Carvajal, D. Fay, J. B. Fazekas, D. C. Fuls, A.
    R. Gibbs, A. D. Grauer, H. Groeller, J. K. Hogan, R. A. Kowalski, S. M.
    Larson, G. J. Leonard, D. Rankin, R. L. Seaman, F. C. Shelly, K. W.
    Wierzchos.  1.0-m prime focus + CCD.
First and last observations above in comparison with prediction:
Residuals in seconds of arc (or two decimals in degrees), reference and Delta-T
240615 F52 1.17+ 0.30+    240618 I52 1.19+ 0.25+    E2024-BE9   +0.32 days
Orbital elements:
2015 LG14                                                Earth MOID = 0.0983 AU
Epoch 2024 Mar. 31.0 TT = JDT 2460400.5                 Veres                   
M 336.17908              (2000.0)            P               Q                  
n   0.54961163     Peri.  343.36989     -0.46836686     +0.86333481             
a   1.4760422      Node   258.36381     -0.78722794     -0.50429787             
e   0.2502503      Incl.   11.05702     -0.40112922     -0.01834832             
P   1.79           H   23.18          G   0.15           U   0                  
Residuals in seconds of arc
150611 F51  0.1-  0.1-    150615 926  0.2-  1.2-    150621 807  0.1+  0.3-
150611 F51  0.2-  0.0     150615 926  0.4+  0.1-    150621 691  0.3+  0.4-
150611 F51  0.1-  0.0     150615 G96  0.2+  0.7+    150621 691  0.2+  0.7-
150612 807  0.2-  0.2-    150615 926  1.5+  0.1-    150621 691  0.4+  0.3-
150612 807  0.1+  0.2-    150615 G96  0.2+  0.5+    150622 691  0.3-  0.0
150612 807  0.2+  0.1-    150615 G96  0.1+  0.1-    150622 691  0.2+  1.1-
150612 926  1.1-  0.2+    150615 I52  0.9+  0.1+    150622 691  0.5-  0.3+
150612 926  0.1+  0.3-    150615 I52  0.3+  0.5-    150624 H21  0.2-  0.2+
150612 926  0.2+  0.1+    150615 I52  0.7-  0.1+    150624 H21  0.4-  0.6+
150613 807  0.0   0.1+    150615 I52  0.2-  0.4+    150624 H21  0.6-  0.3+
150613 807  0.0   0.2+    150616 F51  0.0   0.1+    150719 H21  0.1+  0.3+
150613 807  0.0   0.1-    150616 F51  0.0   0.0     150719 H21  0.1+  0.3+
150613 I52  0.1-  0.8+    150616 F51  0.0   0.3+    150719 H21  0.1-  0.9+
150613 I52  0.1+  0.0     150616 F51  0.0   0.1+    150719 H21  0.3-  0.8+
150613 I52  0.3+  0.4+    150618 807  0.1+  0.0     240615 F52  0.1-  0.1+
150613 291  0.1+  0.2+    150618 807  0.0   0.0     240615 F52  0.0   0.0
150613 291  0.1-  0.1-    150618 807  0.1+  0.2-    240615 F52  0.0   0.0
150613 291  0.2-  0.4+    150620 691  0.2+  0.7-    240615 F52  0.0   0.1-
150615 807  0.2-  0.1+    150620 691  0.0   0.0     240618 I52  0.2+  0.4+
150615 807  0.1-  0.2-    150620 691  0.0   0.1-    240618 I52  0.1-  0.0
150615 807  0.0   0.3-    150621 807  0.0   0.1+    240618 I52  0.1-  0.2-
150615 807 (0.3-  4.4-)   150621 807  0.3+  0.1+
Ephemeris:
2015 LG14                a,e,i = 1.48, 0.25, 11                  q = 1.1067
Date    TT    R. A. (2000) Decl.     Delta      r    Elong.  Phase     V
2024 05 20    20 37 50.0 -30 05 11   0.1965  1.1080   114.5    56.2    21.9
...
2024 06 04    21 00 24.5 -12 40 04   0.1901  1.1206   119.6    51.9    21.7
...
2024 06 12    21 04 15.8 -03 49 54   0.1936  1.1325   123.0    48.8    21.7
...
2024 06 18    21 04 01.5 +02 08 12   0.1992  1.1436   125.6    46.2    21.7
2024 06 19    21 03 45.0 +03 03 44   0.2004  1.1456   126.1    45.8    21.7
2024 06 20    21 03 24.8 +03 57 59   0.2016  1.1477   126.5    45.3    21.7
...
2024 06 26    21 00 08.3 +08 54 54   0.2103  1.1610   129.2    42.7    21.8
...
2024 07 04    20 52 50.6 +14 08 49   0.2250  1.1811   132.8    39.2    21.9
...
2024 07 19    20 34 08.4 +19 36 32   0.2623  1.2247   138.4    33.5    22.1
A. U. Tomatic                (C) Copyright 2024 MPC           M.P.E.C. 2024-M27
    
    
More information about the Iaude
mailing list